| time (UTC) | temp F | wind direction | speed knots | gust knots | rain 1hr in | rain 24hr in | rain mn in | humidity % | barometer mb |
| 20260505070049 | 39 | 217 | 0.9 | 3.5 | 0.00 | 0.47 | 0.00 | 88 | 1007.5 |
| 20260505064541 | 41 | 275 | 3.5 | 11.3 | 0.00 | 0.48 | 0.00 | 89 | 1007.2 |
| 20260505063058 | 40 | 292 | 0.9 | 7.0 | 0.00 | 0.48 | 0.00 | 89 | 1006.8 |
| 20260505061612 | 39 | 279 | 0.9 | 7.0 | 0.00 | 0.48 | 0.00 | 89 | 1006.7 |
| 20260505060051 | 40 | 282 | 0.9 | 10.4 | 0.00 | 0.48 | 0.00 | 89 | 1006.2 |
| 20260505054548 | 39 | 298 | 0.9 | 7.0 | 0.00 | 0.51 | 0.00 | 89 | 1006.0 |
| 20260505053046 | 40 | 0 | 0.9 | 7.0 | 0.00 | 0.51 | 0.00 | 89 | 1005.6 |
| 20260505051606 | 41 | 315 | 0.9 | 7.0 | 0.00 | 0.51 | 0.00 | 88 | 1005.4 |
| 20260505041548 | 42 | 0 | 2.6 | 8.7 | 0.00 | 0.53 | 0.00 | 88 | 1004.4 |
| 20260505040046 | 43 | 279 | 3.5 | 11.3 | 0.00 | 0.53 | 0.00 | 88 | 1004.2 |
| 20260505034541 | 43 | 0 | 2.6 | 9.6 | 0.00 | 0.55 | 0.00 | 88 | 1004.0 |
| 20260505033046 | 43 | 279 | 1.7 | 9.6 | 0.01 | 0.55 | 0.00 | 88 | 1003.8 |
| 20260505031550 | 43 | 245 | 1.7 | 5.2 | 0.01 | 0.55 | 0.00 | 88 | 1003.7 |
| 20260505030045 | 44 | 275 | 1.7 | 7.8 | 0.01 | 0.55 | 0.00 | 87 | 1003.4 |
| 20260505024547 | 45 | 295 | 2.6 | 9.6 | 0.00 | 0.57 | 0.54 | 87 | 1003.6 |
| 20260505023041 | 45 | 0 | 2.6 | 8.7 | 0.00 | 0.56 | 0.53 | 86 | 1003.2 |
| 20260505021552 | 45 | 241 | 3.5 | 8.7 | 0.00 | 0.56 | 0.53 | 84 | 1003.2 |
| 20260505020045 | 45 | 283 | 2.6 | 12.2 | 0.00 | 0.56 | 0.53 | 84 | 1003.1 |
| 20260505014544 | 43 | 308 | 1.7 | 7.8 | 0.00 | 0.65 | 0.53 | 83 | 1002.6 |
| 20260505013042 | 44 | 283 | 1.7 | 7.8 | 0.00 | 0.65 | 0.53 | 81 | 1002.6 |
| 20260505011541 | 44 | 306 | 1.7 | 8.7 | 0.00 | 0.65 | 0.53 | 81 | 1002.6 |
| 20260505010048 | 43 | 260 | 3.5 | 10.4 | 0.00 | 0.65 | 0.53 | 82 | 1002.6 |
| 20260505004544 | 43 | 322 | 1.7 | 6.1 | 0.00 | 0.76 | 0.53 | 81 | 1002.4 |
| 20260505003042 | 44 | 317 | 1.7 | 7.0 | 0.00 | 0.76 | 0.53 | 78 | 1002.3 |
| 20260505001545 | 43 | 304 | 2.6 | 7.8 | 0.00 | 0.76 | 0.53 | 80 | 1002.1 |
| 20260505000047 | 39 | 0 | 1.7 | 3.5 | 0.00 | 0.76 | 0.53 | 87 | 1002.2 |
| 20260504234540 | 39 | 298 | 0.9 | 5.2 | 0.00 | 0.87 | 0.53 | 86 | 1001.7 |
| 20260504233103 | 41 | 306 | 0.9 | 4.3 | 0.00 | 0.87 | 0.53 | 83 | 1001.4 |
| 20260504231546 | 43 | 259 | 1.7 | 7.8 | 0.00 | 0.87 | 0.53 | 78 | 1001.1 |
| 20260504230053 | 45 | 222 | 1.7 | 7.8 | 0.00 | 0.87 | 0.53 | 74 | 1001.0 |
| 20260504224544 | 45 | 283 | 0.9 | 11.3 | 0.00 | 0.99 | 0.53 | 75 | 1000.7 |
| 20260504223041 | 46 | 270 | 0.9 | 5.2 | 0.00 | 0.99 | 0.53 | 72 | 1000.6 |
| 20260504221544 | 49 | 208 | 1.7 | 11.3 | 0.00 | 0.99 | 0.53 | 66 | 1000.5 |
| 20260504220045 | 50 | 221 | 2.6 | 11.3 | 0.00 | 0.99 | 0.53 | 60 | 1000.3 |
| 20260504214545 | 51 | 219 | 6.1 | 13.0 | 0.00 | 1.11 | 0.53 | 59 | 1000.0 |
| 20260504213045 | 51 | 197 | 4.3 | 14.8 | 0.00 | 1.11 | 0.53 | 61 | 1000.0 |
| 20260504211541 | 50 | 235 | 4.3 | 13.9 | 0.00 | 1.11 | 0.53 | 64 | 1000.1 |
| 20260504210105 | 49 | 285 | 1.7 | 9.6 | 0.00 | 1.11 | 0.53 | 69 | 1000.0 |
| 20260504204548 | 49 | 251 | 1.7 | 13.9 | 0.00 | 1.12 | 0.53 | 70 | 999.7 |
| 20260504203101 | 50 | 270 | 5.2 | 13.9 | 0.00 | 1.12 | 0.53 | 69 | 999.5 |
| 20260504201546 | 50 | 231 | 5.2 | 14.8 | 0.00 | 1.12 | 0.53 | 69 | 999.2 |
| 20260504200042 | 50 | 306 | 3.5 | 13.0 | 0.00 | 1.12 | 0.53 | 73 | 998.9 |
| 20260504194540 | 49 | 285 | 5.2 | 11.3 | 0.00 | 1.20 | 0.53 | 75 | 998.5 |
| 20260504193046 | 48 | 295 | 4.3 | 9.6 | 0.00 | 1.20 | 0.53 | 79 | 998.3 |
| 20260504191542 | 47 | 325 | 3.5 | 14.8 | 0.00 | 1.20 | 0.53 | 81 | 998.1 |
| 20260504190106 | 47 | 310 | 4.3 | 14.8 | 0.00 | 1.20 | 0.53 | 82 | 998.0 |
| 20260504184545 | 46 | 246 | 2.6 | 12.2 | 0.00 | 1.20 | 0.53 | 84 | 997.9 |
| 20260504183048 | 45 | 231 | 4.3 | 10.4 | 0.00 | 1.20 | 0.53 | 86 | 997.8 |
| 20260504181550 | 44 | 260 | 5.2 | 13.0 | 0.01 | 1.20 | 0.53 | 87 | 997.4 |
| 20260504180045 | 44 | 225 | 4.3 | 12.2 | 0.02 | 1.20 | 0.53 | 86 | 997.1 |
| 20260504174546 | 44 | 237 | 4.3 | 11.3 | 0.02 | 1.19 | 0.52 | 88 | 996.8 |
| 20260504173042 | 43 | 320 | 2.6 | 12.2 | 0.03 | 1.19 | 0.52 | 88 | 996.5 |
| 20260504171542 | 43 | 257 | 2.6 | 15.6 | 0.03 | 1.18 | 0.51 | 88 | 996.1 |
| 20260504081545 | 36 | 314 | 0.9 | 5.2 | 0.01 | 0.77 | 0.10 | 93 | 976.0 |